SCP
2 2 2 1 1 0 0 0 0 0 0 0 0 0 0 0 0 0 0 0 0 0 1 1 1 1 0 0 0 1 1 1 0 0 0 0 0 0 0 0 0 0 0 1 1 1 0 0 1
2 2 1 1 1 0 0 0 0 0 0 0 0 0 0 0 0 0 0 0 0 0 1 1 1 1 1 0 1 1 1 1 1 0 0 0 0 0 0 0 0 0 0 1 1 1 0 0 0
2 2 1 1 1 0 0 0 0 0 0 0 0 0 0 0 0 0 0 0 0 0 1 1 1 1 1 1 1 1 1 1 1 0 0 0 0 0 0 0 0 0 0 1 1 1 0 0 0
2 1 1 1 0 1 1 0 0 0 0 0 0 0 0 0 0 0 0 0 0 0 1 1 1 1 1 1 1 1 1 1 1 0 0 0 0 0 0 0 0 0 0 1 1 1 0 0 0
1 1 1 0 1 1 1 0 0 0 0 0 0 0 0 0 0 0 0 0 0 0 0 1 1 2 1 1 1 1 1 1 1 1 0 0 0 0 0 0 0 0 0 1 1 1 1 0 0
1 1 0 0 1 1 0 0 0 0 0 0 0 0 0 0 0 0 0 0 0 0 0 1 1 1 1 1 1 1 1 1 1 1 1 0 0 0 0 0 0 0 0 0 1 1 1 1 1
1 0 0 1 1 1 0 0 0 0 0 0 0 0 0 0 0 0 0 0 0 0 0 0 1 1 1 1 1 1 1 1 1 1 1 0 0 0 0 0 0 0 0 0 1 1 1 1 1
0 0 0 1 1 0 0 0 0 0 0 0 0 0 0 0 0 0 0 0 0 0 0 0 0 0 0 0 0 0 0 1 1 0 0 0 0 0 0 0 0 0 0 0 0 0 1 1 1
0 0 0 0 0 0 0 0 0 0 0 0 0 0 0 0 0 0 0 0 0 0 0 0 0 0 0 0 0 0 0 0 0 0 0 0 0 0 0 0 0 0 0 0 0 0 0 0 0
0 0 0 0 0 0 0 0 0 0 0 0 0 1 0 0 0 0 0 0 0 0 0 0 0 0 0 0 0 0 0 0 0 0 0 0 0 0 0 0 0 0 0 0 0 0 0 0 0
0 0 0 0 0 0 0 0 0 0 0 0 1 1 0 0 0 0 0 0 0 0 0 0 0 0 0 0 0 0 0 0 0 0 0 0 0 0 0 0 0 0 0 0 1 0 0 0 0
0 0 0 0 0 0 0 0 0 0 0 0 1 1 0 0 0 0 0 0 0 0 0 0 0 0 0 0 0 0 0 0 0 0 0 0 0 0 0 0 0 0 0 0 0 0 0 0 0
0 0 0 0 0 0 0 0 0 0 0 0 1 1 0 0 0 0 0 0 0 0 0 0 0 0 0 0 0 0 0 0 0 0 0 0 0 0 0 0 0 0 0 0 0 0 0 0 0
0 0 0 0 0 0 0 0 0 0 0 0 0 1 1 0 0 0 0 0 0 0 0 0 0 0 0 0 0 0 0 0 0 0 0 0 0 0 0 0 0 0 0 0 0 0 0 1 1
0 0 0 0 0 0 0 1 1 0 0 0 0 0 1 1 0 0 0 0 0 0 0 0 0 0 0 0 0 0 0 0 0 0 0 0 0 0 0 0 0 0 0 0 0 0 1 1 1
0 0 0 0 0 0 0 0 0 1 0 0 0 0 1 1 1 0 0 0 0 0 0 0 0 0 0 0 0 0 0 0 0 0 0 0 0 0 0 0 0 0 0 0 0 1 1 1 1
0 0 0 0 0 0 0 0 0 1 1 1 1 1 1 1 1 1 1 1 0 0 0 0 0 0 0 0 0 0 0 0 0 0 0 0 0 0 0 0 0 0 0 0 0 1 1 1 2
0 0 0 0 0 0 0 0 0 1 1 1 1 1 1 1 1 1 1 1 0 0 0 0 0 0 0 0 0 0 0 0 0 0 0 0 0 0 0 0 0 0 0 0 0 1 1 1 1
0 0 0 0 0 0 0 0 0 1 1 1 1 1 1 0 1 1 1 1 0 0 0 0 0 0 0 0 0 0 0 0 0 0 0 0 0 0 0 0 0 0 0 0 0 0 1 1 1
0 0 0 0 0 0 0 0 0 0 0 1 1 1 1 0 1 1 1 1 1 1 1 1 1 0 0 0 0 0 0 0 0 0 0 0 0 0 0 0 0 0 0 0 0 0 0 0 0
0 0 0 0 0 0 0 0 0 0 1 1 1 1 1 1 1 1 1 1 1 1 1 1 1 1 1 0 0 0 0 0 0 0 0 0 0 0 0 0 0 0 0 0 0 0 0 0 0
0 0 0 0 0 0 0 0 0 1 1 1 1 1 1 1 1 1 1 1 1 1 1 1 1 2 2 1 0 0 0 0 0 0 0 0 0 0 0 0 0 0 0 0 0 0 0 0 0
0 0 0 0 0 0 0 0 0 1 1 1 1 1 1 1 1 1 2 2 1 1 1 1 1 2 3 2 1 0 0 0 0 0 0 0 0 0 0 0 0 0 0 0 0 0 0 0 0
0 0 0 0 0 0 0 0 0 1 1 1 1 1 1 1 1 1 2 2 2 1 1 1 1 3 3 3 2 1 1 0 0 0 0 0 0 0 0 0 0 0 0 0 0 0 0 0 0
0 0 0 0 0 0 0 0 0 0 1 1 1 1 1 1 1 1 2 2 2 2 1 1 1 2 3 3 3 2 1 0 0 0 0 0 0 0 0 0 0 0 0 0 0 0 0 0 0
0 0 0 0 0 0 0 0 0 0 0 0 1 1 1 1 1 1 2 3 3 2 1 1 1 2 2 3 2 2 1 0 0 0 0 0 0 0 0 0 0 0 0 0 0 0 0 0 0
0 0 0 0 0 0 0 0 0 0 0 0 0 1 1 2 2 2 2 3 3 2 1 1 1 1 2 2 2 1 1 0 0 0 0 0 0 0 0 0 0 0 0 0 0 0 0 0 0
0 0 0 0 0 0 0 0 0 0 0 0 0 0 1 2 2 2 2 3 3 2 1 1 1 1 1 1 1 1 0 0 0 0 0 0 0 0 0 0 0 0 0 0 0 0 0 0 0
0 0 0 0 0 0 0 0 0 0 0 0 0 0 1 1 2 2 2 2 2 1 1 1 1 1 1 1 1 0 0 0 0 0 0 0 0 0 0 0 0 0 0 0 0 0 0 0 0
0 0 0 0 0 0 0 0 0 0 0 0 0 0 1 1 2 2 2 1 1 1 1 1 1 1 1 1 1 1 0 0 0 0 0 0 0 0 0 0 0 0 0 0 0 0 0 0 0
Wind_Speed
8 8 5 2 2 2 4 6 8 7 7 9 10 11 13 12 9 8 3 5 9 10 11 10 10 10 10 9 9 10 10 9 9 9 9 9 9 9 9 9 10 10 10 9 9 9 9 9 9
8 5 3 2 2 0 5 7 8 9 8 6 9 12 12 11 11 8 4 5 9 11 10 10 10 10 10 9 9 9 9 9 9 9 9 9 9 10 10 10 10 10 9 9 9 8 9 8 8
10 6 3 2 2 4 6 6 7 8 7 7 8 11 9 8 9 6 5 7 10 11 11 9 10 10 10 10 9 9 9 9 9 9 9 9 9 9 9 9 9 10 10 9 9 8 8 8 8
5 3 4 1 5 9 8 6 5 7 6 7 9 10 9 9 7 8 8 8 10 10 11 9 10 10 10 9 9 9 9 8 8 8 9 9 9 9 9 8 9 9 9 9 9 8 8 7 7
4 3 2 1 6 8 7 6 6 7 7 9 11 11 10 10 10 10 7 7 9 10 10 10 10 10 10 9 9 9 9 8 8 8 8 8 8 8 8 8 8 8 8 8 8 8 8 7 7
3 3 2 2 7 7 6 6 7 8 8 8 11 11 8 8 8 7 7 6 8 9 10 10 11 11 10 10 9 9 8 8 8 7 7 7 7 7 7 7 7 7 7 7 7 7 8 7 7
3 3 0 4 5 5 5 5 6 7 8 7 7 10 9 8 7 6 6 6 6 7 8 8 9 9 10 10 9 8 7 7 6 6 5 5 5 6 6 7 7 7 7 7 7 6 6 6 5
3 4 1 4 5 5 5 6 6 7 7 5 5 8 8 8 7 6 5 5 5 5 6 7 7 8 8 7 8 7 6 5 4 4 4 4 4 5 6 6 6 6 6 6 5 5 5 4 4
4 2 2 4 4 5 5 6 5 5 8 9 11 11 12 12 9 7 5 5 4 4 4 5 6 6 6 6 7 6 6 4 4 4 5 4 2 3 4 7 6 5 5 4 4 3 3 2 2
2 2 5 5 5 5 5 5 4 6 9 10 11 11 12 10 9 7 6 6 5 4 4 5 6 5 4 4 4 2 3 3 3 2 2 2 2 3 5 6 5 5 4 3 2 1 1 1 1
2 3 5 6 5 4 5 4 4 5 6 8 10 11 10 8 7 6 5 5 4 4 3 4 5 5 5 3 3 1 1 1 1 2 3 3 2 3 3 2 3 2 3 1 2 1 1 1 1
3 4 4 5 5 4 4 4 5 7 6 8 10 11 9 7 6 5 5 6 5 4 4 3 3 5 5 4 2 2 2 1 2 2 3 3 2 2 2 2 2 1 1 2 1 1 2 3 4
3 3 4 4 3 3 5 5 5 7 7 9 9 9 7 6 6 5 5 6 6 5 4 4 4 5 5 4 1 3 2 2 2 1 1 3 2 2 1 2 2 2 2 2 2 3 4 4 4
3 3 2 2 2 2 3 4 4 6 7 9 9 8 6 4 4 5 5 5 5 5 5 4 4 4 4 4 3 2 2 1 2 2 2 4 2 2 2 3 3 2 2 2 2 4 3 4 4
3 3 2 3 2 2 2 2 4 8 7 8 7 6 6 4 3 3 5 4 5 5 6 5 4 4 4 4 3 3 1 2 2 2 3 3 3 3 3 3 2 2 3 3 3 4 4 4 4
4 4 3 4 4 3 3 2 5 7 7 7 6 5 5 5 5 4 4 5 4 5 6 5 4 5 5 3 3 2 2 3 2 2 3 3 3 4 3 3 2 3 3 3 3 4 4 4 4
4 4 3 3 4 3 3 2 4 7 7 6 6 6 6 6 5 4 4 4 4 5 6 5 4 4 4 3 2 2 3 3 2 3 3 4 4 4 4 2 2 3 3 3 4 4 3 3 3
3 2 1 2 4 2 2 3 5 6 7 6 6 6 6 6 6 5 4 4 4 4 6 6 4 3 4 2 2 2 3 2 3 3 3 4 3 4 3 2 3 4 3 3 3 3 3 2 2
4 3 2 0 2 2 3 3 5 7 6 6 6 6 6 6 7 6 5 4 4 5 5 5 5 3 3 2 1 2 2 2 3 3 4 3 3 3 3 3 4 4 3 3 3 3 2 2 1
3 2 1 1 1 2 3 4 5 7 8 7 7 7 7 8 7 7 6 5 4 5 5 5 5 4 4 2 2 2 2 2 3 3 3 3 3 3 3 3 3 3 3 3 3 3 2 1 1
3 2 3 3 4 4 4 5 6 8 7 6 5 5 6 8 8 8 7 6 5 5 5 4 5 5 5 4 2 2 2 2 2 2 2 2 3 3 3 3 3 2 3 2 2 2 2 1 2
4 3 3 4 5 3 4 3 3 7 7 7 7 6 5 6 7 8 7 6 5 5 4 5 5 5 5 5 3 3 3 2 2 2 2 2 3 3 3 3 2 3 3 3 2 2 2 2 1
3 3 4 6 6 5 5 3 2 6 7 7 8 7 6 6 6 7 7 6 6 5 3 3 4 4 4 4 4 2 2 2 2 2 3 3 2 2 2 2 2 3 3 2 2 3 2 1 1
4 5 6 6 4 5 5 4 1 3 5 7 7 7 7 7 6 6 7 7 6 6 4 4 4 4 4 4 4 3 3 2 3 3 2 2 2 2 2 2 2 2 2 2 2 2 2 1 2
5 4 3 3 3 3 1 2 2 4 4 6 7 8 7 7 7 7 7 7 7 7 5 4 5 4 4 4 4 5 4 3 3 3 2 2 2 2 1 2 2 2 2 2 2 1 2 2 1
5 5 4 3 2 1 2 1 4 6 5 6 6 6 6 8 7 7 8 8 8 7 6 5 5 5 4 4 4 4 4 2 2 2 3 2 2 2 3 2 3 3 2 2 2 2 2 2 2
5 4 5 6 7 4 1 3 5 6 6 5 6 6 6 7 7 7 8 8 8 7 6 5 6 5 5 4 3 3 4 3 3 2 2 2 2 2 3 3 4 3 2 2 2 1 2 2 2
6 5 3 3 3 3 1 2 2 4 3 4 6 6 7 7 7 8 8 8 8 7 6 6 5 6 5 4 4 3 3 3 3 2 3 3 3 2 2 2 3 3 3 2 2 1 1 2 2
5 5 4 3 3 2 1 2 4 4 3 2 5 6 6 7 7 7 7 8 8 7 7 6 6 5 5 4 4 4 3 3 3 2 2 2 3 2 2 2 2 3 3 3 2 1 1 1 1
4 5 4 3 3 3 1 1 4 5 4 2 4 6 6 7 7 7 7 7 7 7 7 6 5 5 4 4 4 4 3 3 3 3 3 2 3 2 2 2 2 2 2 2 2 2 1 1 1
Wind_Direction
268 248 240 251 258 232 62 60 62 49 56 51 45 60 65 52 56 89 129 102 102 103 102 88 77 74 74 73 73 72 68 65 64 62 62 63 64 65 63 62 64 65 63 61 63 65 65 65 64
276 264 256 241 263 54 67 65 65 58 61 67 60 66 71 69 81 99 112 99 100 97 92 85 81 77 73 73 74 72 70 66 65 64 63 63 65 65 65 64 64 64 63 63 65 70 67 64 62
262 260 259 249 353 52 73 72 77 68 56 66 74 61 54 68 81 102 124 115 99 96 96 91 85 81 79 77 74 72 71 67 65 64 66 69 70 69 65 62 63 64 63 63 62 67 69 66 62
258 254 242 265 60 63 78 87 85 81 60 61 82 74 66 60 89 112 122 114 109 107 104 101 94 88 84 80 76 73 73 68 66 67 69 71 70 69 66 63 64 65 63 63 62 64 68 68 62
247 253 253 78 74 71 71 79 78 68 62 64 79 87 83 80 96 106 111 113 110 109 110 113 106 98 91 84 79 74 73 72 70 70 72 73 72 69 67 66 66 67 66 65 65 66 68 67 61
275 256 269 80 82 78 65 65 75 75 74 77 97 99 92 99 98 102 102 100 104 113 116 119 121 112 101 91 83 78 75 75 76 79 81 79 78 74 70 69 69 70 70 71 70 68 69 66 57
281 289 331 89 96 87 84 66 71 80 71 60 89 102 110 107 106 110 106 99 100 111 121 130 136 127 115 105 98 91 86 86 90 92 96 97 97 91 83 79 75 76 76 74 73 73 73 68 60
288 298 5 80 92 85 88 84 67 79 82 76 81 107 121 125 126 122 121 118 115 115 121 127 134 138 138 130 124 122 118 117 122 130 135 131 126 117 104 96 88 84 82 80 81 81 80 77 68
271 290 30 61 80 92 95 93 87 92 87 71 65 89 116 132 134 135 135 124 115 112 118 117 117 119 127 135 134 152 153 165 178 191 196 185 185 139 112 97 107 99 95 95 97 96 98 102 97
248 27 50 52 69 95 92 83 101 103 95 89 85 97 120 138 141 144 141 134 131 131 123 118 116 114 108 99 124 151 144 160 199 156 153 155 102 93 102 118 128 127 121 127 144 155 175 214 180
31 61 56 59 62 85 94 88 78 95 98 111 123 126 132 140 139 141 133 118 114 109 98 108 117 114 111 100 95 75 81 106 74 61 89 82 84 112 121 143 152 160 163 162 162 201 222 104 84
60 58 59 66 67 72 79 78 76 80 89 105 122 133 137 143 136 128 119 114 113 99 91 85 97 105 95 84 90 83 60 58 64 29 77 86 66 63 87 105 99 101 88 62 65 63 55 50 56
102 94 91 90 85 86 93 89 86 93 97 102 116 125 133 137 129 123 111 114 114 113 104 83 77 81 93 92 75 89 64 36 63 23 65 92 80 70 71 86 76 68 69 71 46 54 53 52 45
88 99 113 120 110 95 106 116 122 111 118 120 126 128 133 123 125 128 123 119 119 117 106 89 83 81 90 101 92 79 89 83 50 21 42 83 85 76 60 73 72 65 60 63 67 67 60 61 57
153 166 164 164 163 128 117 131 130 133 134 127 130 135 134 136 141 142 133 122 110 112 105 97 96 89 75 76 77 87 88 90 66 38 27 70 79 74 63 58 66 68 66 59 55 61 58 67 66
212 208 202 171 176 181 208 171 144 148 144 135 133 139 143 151 161 162 136 119 118 116 111 108 97 93 80 70 62 76 75 69 70 51 25 44 77 81 72 59 56 62 70 67 66 60 60 61 59
222 227 193 166 175 180 199 168 158 157 150 149 152 161 158 156 163 154 134 128 126 121 117 111 92 96 96 89 84 48 69 64 65 61 36 27 49 70 79 61 53 62 57 54 68 65 64 69 71
270 273 178 165 163 189 213 191 171 169 163 164 167 171 167 164 161 148 136 128 126 120 117 118 115 105 108 91 80 65 53 65 70 66 57 31 33 51 74 77 61 65 65 59 70 73 70 70 71
306 324 323 105 148 204 242 221 184 171 176 179 179 182 173 165 161 149 150 148 143 132 126 128 132 130 114 97 85 87 81 66 72 76 67 53 40 40 60 67 68 61 70 71 79 74 66 55 77
291 297 299 283 191 232 230 240 190 181 187 187 187 183 177 170 165 153 156 154 148 138 143 145 143 136 126 118 115 117 107 94 86 71 60 54 54 38 51 69 87 82 78 70 70 74 56 14 41
282 297 310 309 291 242 225 242 195 179 180 182 183 185 185 169 166 162 165 159 155 151 156 153 150 141 135 125 95 84 78 72 90 97 80 54 58 47 37 51 69 89 92 93 89 72 67 19 351
303 351 301 282 282 279 240 257 188 170 168 179 181 192 197 174 170 165 163 158 156 152 159 161 146 136 127 122 115 123 119 121 124 127 121 103 74 64 47 45 62 78 84 90 84 87 68 58 6
320 334 291 276 276 282 259 252 181 159 173 182 182 190 188 171 170 163 158 154 154 146 146 133 120 118 119 121 121 119 111 124 114 107 113 115 95 83 76 52 53 69 82 88 79 72 62 47 43
300 286 268 255 262 264 245 219 153 162 171 176 178 182 177 165 162 155 151 144 142 139 139 133 128 125 133 138 143 136 119 107 101 105 112 117 113 95 94 91 69 73 78 72 74 86 94 68 43
257 278 275 233 218 239 191 176 134 129 145 165 172 170 172 164 162 157 154 148 147 146 148 150 141 141 157 167 160 149 146 148 151 146 140 136 124 119 117 100 89 79 80 78 61 55 69 89 76
243 254 274 300 304 264 203 154 114 111 115 138 149 158 165 158 160 162 156 150 151 153 158 162 156 161 172 181 172 155 150 155 156 151 145 145 135 145 141 124 107 88 74 80 64 43 40 49 67
265 249 266 289 299 293 189 124 120 114 113 130 142 151 159 154 156 157 153 153 153 158 165 171 166 163 174 186 162 153 152 159 152 161 143 133 134 138 130 128 118 110 90 75 73 62 50 48 53
269 295 284 267 298 294 254 142 138 127 113 132 146 156 157 157 157 155 152 153 157 160 167 172 170 167 173 180 163 157 155 155 151 145 133 139 136 121 123 129 129 126 123 100 75 46 48 77 78
228 248 265 273 266 296 319 49 98 122 119 139 144 147 155 154 152 152 154 159 156 157 168 175 169 165 170 176 166 156 155 151 148 143 131 126 122 136 144 129 128 130 129 124 120 100 38 56 77
257 247 249 266 282 279 283 89 97 112 112 118 132 138 149 147 144 149 154 155 156 163 172 170 162 163 164 165 155 155 153 152 153 146 145 158 149 158 156 136 113 102 110 123 122 127 117 75 64